Time,TemperatureF,DewpointF,PressureIn,WindDirection,WindDirectionDegrees,WindSpeedMPH,WindSpeedGustMPH,Humidity,HourlyPrecipIn,Conditions,Clouds,dailyrainin,SolarRadiationWatts/m^2,SoftwareType,DateUTC
2013-06-07 00:12:00,44.0,36.0,-100.00,ESE,120,0.0,5.0,74,0.00,,,0.00,11.000000,,2013-06-07 08:12:00,
2013-06-07 00:22:00,44.0,36.0,-100.00,ESE,120,0.0,5.0,74,0.00,,,0.00,11.000000,,2013-06-07 08:22:00,
2013-06-07 00:32:00,44.0,36.0,-100.00,ESE,120,0.0,5.0,74,0.00,,,0.00,11.000000,,2013-06-07 08:32:00,
2013-06-07 00:42:00,44.0,36.0,-100.00,ESE,120,0.0,5.0,74,0.00,,,0.00,11.000000,,2013-06-07 08:42:00,
2013-06-07 00:52:00,41.0,35.0,-100.00,SSE,159,0.0,4.0,80,0.00,,,0.00,0.000000,,2013-06-07 08:52:00,
2013-06-07 01:12:00,41.0,35.0,-100.00,SSE,159,0.0,4.0,80,0.00,,,0.00,0.000000,,2013-06-07 09:12:00,
2013-06-07 01:22:00,41.0,35.0,-100.00,SSE,159,0.0,4.0,80,0.00,,,0.00,0.000000,,2013-06-07 09:22:00,
2013-06-07 01:32:00,41.0,35.0,-100.00,SSE,159,0.0,4.0,80,0.00,,,0.00,0.000000,,2013-06-07 09:32:00,
2013-06-07 01:43:00,41.0,35.0,-100.00,SSE,159,0.0,4.0,80,0.00,,,0.00,0.000000,,2013-06-07 09:43:00,
2013-06-07 01:52:00,40.0,35.0,-100.00,East,97,0.0,4.0,81,0.00,,,0.00,0.000000,,2013-06-07 09:52:00,
2013-06-07 02:12:00,40.0,35.0,-100.00,East,97,0.0,4.0,81,0.00,,,0.00,0.000000,,2013-06-07 10:12:00,
2013-06-07 02:23:00,40.0,35.0,-100.00,East,97,0.0,4.0,81,0.00,,,0.00,0.000000,,2013-06-07 10:23:00,
2013-06-07 02:32:00,40.0,35.0,-100.00,East,97,0.0,4.0,81,0.00,,,0.00,0.000000,,2013-06-07 10:32:00,
2013-06-07 02:42:00,40.0,35.0,-100.00,East,97,0.0,4.0,81,0.00,,,0.00,0.000000,,2013-06-07 10:42:00,
2013-06-07 02:52:00,38.0,34.0,-100.00,NE,50,0.0,4.0,85,0.00,,,0.00,0.000000,,2013-06-07 10:52:00,
2013-06-07 03:12:00,38.0,34.0,-100.00,NE,50,0.0,4.0,85,0.00,,,0.00,0.000000,,2013-06-07 11:12:00,
2013-06-07 03:22:00,38.0,34.0,-100.00,NE,50,0.0,4.0,85,0.00,,,0.00,0.000000,,2013-06-07 11:22:00,
2013-06-07 03:32:00,38.0,34.0,-100.00,NE,50,0.0,4.0,85,0.00,,,0.00,0.000000,,2013-06-07 11:32:00,
2013-06-07 03:42:00,38.0,34.0,-100.00,NE,50,0.0,4.0,85,0.00,,,0.00,0.000000,,2013-06-07 11:42:00,
2013-06-07 03:52:00,37.0,34.0,-100.00,East,87,0.0,4.0,87,0.00,,,0.00,0.000000,,2013-06-07 11:52:00,
2013-06-07 04:12:00,37.0,34.0,-100.00,East,87,0.0,4.0,87,0.00,,,0.00,0.000000,,2013-06-07 12:12:00,
2013-06-07 04:22:00,37.0,34.0,-100.00,East,87,0.0,4.0,87,0.00,,,0.00,0.000000,,2013-06-07 12:22:00,
2013-06-07 04:32:00,37.0,34.0,-100.00,East,87,0.0,4.0,87,0.00,,,0.00,0.000000,,2013-06-07 12:32:00,
2013-06-07 04:42:00,37.0,34.0,-100.00,East,87,0.0,4.0,87,0.00,,,0.00,0.000000,,2013-06-07 12:42:00,
2013-06-07 05:52:00,37.0,34.0,-100.00,ESE,109,0.0,2.0,89,-99.99,,,0.00,16.000000,,2013-06-07 13:52:00,
2013-06-07 06:12:00,37.0,34.0,-100.00,ESE,109,0.0,2.0,89,-99.99,,,0.00,16.000000,,2013-06-07 14:12:00,
2013-06-07 06:22:00,37.0,34.0,-100.00,ESE,109,0.0,2.0,89,-99.99,,,0.00,16.000000,,2013-06-07 14:22:00,
2013-06-07 06:32:00,37.0,34.0,-100.00,ESE,109,0.0,2.0,89,-99.99,,,0.00,16.000000,,2013-06-07 14:32:00,
2013-06-07 06:42:00,37.0,34.0,-100.00,ESE,109,0.0,2.0,89,-99.99,,,0.00,16.000000,,2013-06-07 14:42:00,
2013-06-07 06:52:00,39.0,35.0,-100.00,East,96,0.0,3.0,84,0.00,,,0.00,40.000000,,2013-06-07 14:52:00,
2013-06-07 07:12:00,39.0,35.0,-100.00,East,96,0.0,3.0,84,0.00,,,0.00,40.000000,,2013-06-07 15:12:00,
2013-06-07 07:22:00,39.0,35.0,-100.00,East,96,0.0,3.0,84,0.00,,,0.00,40.000000,,2013-06-07 15:22:00,
2013-06-07 07:33:00,39.0,35.0,-100.00,East,96,0.0,3.0,84,0.00,,,0.00,40.000000,,2013-06-07 15:33:00,
2013-06-07 07:43:00,39.0,35.0,-100.00,East,96,0.0,3.0,84,0.00,,,0.00,40.000000,,2013-06-07 15:43:00,
2013-06-07 07:52:00,51.0,42.0,-100.00,ENE,57,0.0,2.0,71,0.00,,,0.00,111.000000,,2013-06-07 15:52:00,
2013-06-07 08:13:00,51.0,42.0,-100.00,ENE,57,0.0,2.0,71,0.00,,,0.00,111.000000,,2013-06-07 16:13:00,
2013-06-07 08:22:00,51.0,42.0,-100.00,ENE,57,0.0,2.0,71,0.00,,,0.00,111.000000,,2013-06-07 16:22:00,
2013-06-07 08:33:00,51.0,42.0,-100.00,ENE,57,0.0,2.0,71,0.00,,,0.00,111.000000,,2013-06-07 16:33:00,
2013-06-07 08:43:00,51.0,42.0,-100.00,ENE,57,0.0,2.0,71,0.00,,,0.00,111.000000,,2013-06-07 16:43:00,
2013-06-07 08:52:00,57.0,39.0,-100.00,WNW,286,0.0,0.0,50,0.00,,,0.00,74.000000,,2013-06-07 16:52:00,
2013-06-07 09:12:00,57.0,39.0,-100.00,WNW,286,0.0,0.0,50,0.00,,,0.00,74.000000,,2013-06-07 17:12:00,
2013-06-07 09:22:00,57.0,39.0,-100.00,WNW,286,0.0,0.0,50,0.00,,,0.00,74.000000,,2013-06-07 17:22:00,
2013-06-07 09:42:00,57.0,39.0,-100.00,WNW,286,0.0,0.0,50,0.00,,,0.00,74.000000,,2013-06-07 17:42:00,
2013-06-07 10:16:00,63.0,36.0,-100.00,NW,309,1.0,4.0,37,0.00,,,0.00,361.000000,,2013-06-07 18:16:00,
2013-06-07 10:23:00,63.0,36.0,-100.00,NW,309,1.0,4.0,37,0.00,,,0.00,361.000000,,2013-06-07 18:23:00,
2013-06-07 11:14:00,66.0,37.0,-100.00,West,279,2.0,6.0,34,-99.99,,,0.00,530.000000,,2013-06-07 19:14:00,
2013-06-07 11:27:00,66.0,37.0,-100.00,West,279,2.0,6.0,34,-99.99,,,0.00,530.000000,,2013-06-07 19:27:00,
2013-06-07 12:13:00,70.0,38.0,-100.00,West,273,2.0,6.0,31,-99.99,,,0.00,769.000000,,2013-06-07 20:13:00,
2013-06-07 12:23:00,70.0,38.0,-100.00,West,273,2.0,6.0,31,-99.99,,,0.00,769.000000,,2013-06-07 20:23:00,
2013-06-07 13:16:00,71.0,39.0,-100.00,West,271,3.0,7.0,31,-99.99,,,0.00,820.000000,,2013-06-07 21:16:00,
2013-06-07 13:25:00,71.0,39.0,-100.00,West,271,3.0,7.0,31,-99.99,,,0.00,820.000000,,2013-06-07 21:25:00,
2013-06-07 14:25:00,72.0,36.0,-100.00,West,264,3.0,11.0,27,-99.99,,,0.00,914.000000,,2013-06-07 22:25:00,
2013-06-07 15:17:00,71.0,39.0,-100.00,SW,215,4.0,9.0,31,-99.99,,,0.00,815.000000,,2013-06-07 23:17:00,
2013-06-07 15:26:00,71.0,39.0,-100.00,SW,215,4.0,9.0,31,-99.99,,,0.00,815.000000,,2013-06-07 23:26:00,
2013-06-07 16:14:00,71.0,36.0,-100.00,SW,220,4.0,11.0,28,-99.99,,,0.00,888.000000,,2013-06-08 00:14:00,
2013-06-07 16:26:00,71.0,36.0,-100.00,SW,220,4.0,11.0,28,-99.99,,,0.00,888.000000,,2013-06-08 00:26:00,
2013-06-07 17:17:00,71.0,35.0,-100.00,SSW,196,4.0,11.0,27,-99.99,,,0.00,819.000000,,2013-06-08 01:17:00,
2013-06-07 18:13:00,68.0,35.0,-100.00,SSW,200,4.0,12.0,30,-99.99,,,0.00,366.000000,,2013-06-08 02:13:00,
2013-06-07 19:15:00,66.0,34.0,-100.00,SSW,208,4.0,11.0,30,-99.99,,,0.00,246.000000,,2013-06-08 03:15:00,
2013-06-07 19:25:00,66.0,34.0,-100.00,SSW,208,4.0,11.0,30,-99.99,,,0.00,246.000000,,2013-06-08 03:25:00,
2013-06-07 20:12:00,67.0,36.0,-100.00,SSW,200,3.0,11.0,32,-99.99,,,0.00,144.000000,,2013-06-08 04:12:00,
2013-06-07 20:23:00,67.0,36.0,-100.00,SSW,200,3.0,11.0,32,-99.99,,,0.00,144.000000,,2013-06-08 04:23:00,
2013-06-07 20:52:00,60.0,36.0,-100.00,SW,220,2.0,10.0,41,-99.99,,,0.00,142.000000,,2013-06-08 04:52:00,
2013-06-07 21:12:00,60.0,36.0,-100.00,SW,220,2.0,10.0,41,-99.99,,,0.00,142.000000,,2013-06-08 05:12:00,
2013-06-07 21:22:00,60.0,36.0,-100.00,SW,220,2.0,10.0,41,-99.99,,,0.00,142.000000,,2013-06-08 05:22:00,
2013-06-07 21:32:00,60.0,36.0,-100.00,SW,220,2.0,10.0,41,-99.99,,,0.00,142.000000,,2013-06-08 05:32:00,
2013-06-07 21:42:00,60.0,36.0,-100.00,SW,220,2.0,10.0,41,-99.99,,,0.00,142.000000,,2013-06-08 05:42:00,
2013-06-07 21:52:00,54.0,39.0,-100.00,SSW,196,1.0,4.0,56,0.00,,,0.00,46.000000,,2013-06-08 05:52:00,
2013-06-07 22:12:00,54.0,39.0,-100.00,SSW,196,1.0,4.0,56,0.00,,,0.00,46.000000,,2013-06-08 06:12:00,
2013-06-07 22:22:00,54.0,39.0,-100.00,SSW,196,1.0,4.0,56,0.00,,,0.00,46.000000,,2013-06-08 06:22:00,
2013-06-07 22:32:00,54.0,39.0,-100.00,SSW,196,1.0,4.0,56,0.00,,,0.00,46.000000,,2013-06-08 06:32:00,
2013-06-07 22:42:00,54.0,39.0,-100.00,SSW,196,1.0,4.0,56,0.00,,,0.00,46.000000,,2013-06-08 06:42:00,
2013-06-07 22:52:00,48.0,38.0,-100.00,South,189,0.0,6.0,68,0.00,,,0.00,13.000000,,2013-06-08 06:52:00,
2013-06-07 23:12:00,48.0,38.0,-100.00,South,189,0.0,6.0,68,0.00,,,0.00,13.000000,,2013-06-08 07:12:00,
2013-06-07 23:22:00,48.0,38.0,-100.00,South,189,0.0,6.0,68,0.00,,,0.00,13.000000,,2013-06-08 07:22:00,
2013-06-07 23:32:00,48.0,38.0,-100.00,South,189,0.0,6.0,68,0.00,,,0.00,13.000000,,2013-06-08 07:32:00,
2013-06-07 23:42:00,48.0,38.0,-100.00,South,189,0.0,6.0,68,0.00,,,0.00,13.000000,,2013-06-08 07:42:00,
2013-06-07 23:52:00,47.0,39.0,-100.00,SW,222,0.0,2.0,73,0.00,,,0.00,4.000000,,2013-06-08 07:52:00,